DW2363 Weather Reports


time (UTC)temp
C
wind
direction
speed
KPH
gust
KPH
rain 1hr
cm
rain 24hr
cm
rain mn
cm
humidity
%
barometer
mb
20260508121026 16 94 0.0 3.2 0.00 0.00 0.00 79 1015.1
20260508120526 15 94 0.0 1.6 0.00 0.00 0.00 77 1015.1
20260508120026 15 94 0.0 1.6 0.00 0.00 0.00 79 1015.1
20260508115526 15 94 0.0 1.6 0.00 0.00 0.00 80 1015.1
20260508115026 15 94 0.0 3.2 0.00 0.00 0.00 79 1015.1
20260508114526 15 94 1.6 3.2 0.00 0.00 0.00 82 1015.1
20260508114026 15 94 1.6 3.2 0.00 0.00 0.00 80 1015.1
20260508113526 15 94 1.6 3.2 0.00 0.00 0.00 81 1015.1
20260508113031 15 264 0.0 4.8 0.00 0.00 0.00 82 1015.1
20260508113025 15 84 1.6 3.2 0.00 0.00 0.00 82 1015.1
20260508112024 15 249 1.6 4.8 0.00 0.00 0.00 82 1015.1
20260508111523 15 200 1.6 4.8 0.00 0.00 0.00 82 1015.1
20260508111022 15 189 1.6 4.8 0.00 0.00 0.00 81 1015.1
20260508110522 15 202 1.6 3.2 0.00 0.00 0.00 80 1015.1
20260508110022 15 191 1.6 4.8 0.00 0.00 0.00 81 1015.1
20260508105523 15 180 3.2 6.4 0.00 0.00 0.00 82 1015.0
20260508105022 15 130 1.6 6.4 0.00 0.00 0.00 81 1015.0
20260508104521 15 19 3.2 6.4 0.00 0.00 0.00 80 1015.0
20260508104022 15 35 3.2 6.4 0.00 0.00 0.00 82 1015.1
20260508103520 15 67 1.6 4.8 0.00 0.00 0.00 80 1015.2
20260508103020 15 67 3.2 6.4 0.00 0.00 0.00 80 1015.1
20260508102520 15 45 4.8 8.0 0.00 0.00 0.00 80 1015.0
20260508102020 15 55 4.8 8.0 0.00 0.00 0.00 80 1015.0
20260508101520 15 33 6.4 9.7 0.00 0.00 0.00 80 1015.0
20260508101020 15 38 6.4 9.7 0.00 0.00 0.00 81 1015.2
20260508100520 14 43 4.8 8.0 0.00 0.00 0.00 81 1015.1
20260508100024 14 55 1.6 8.0 0.00 0.00 0.00 83 1015.1
20260508100020 14 74 3.2 8.0 0.00 0.00 0.00 83 1015.1
20260508095628 14 25 3.2 8.0 0.00 0.00 0.00 84 1015.2
20260508094522 14 355 8.0 12.9 0.00 0.00 0.00 84 1015.1
20260508094518 14 310 6.4 9.7 0.00 0.00 0.00 84 1015.1
20260508094125 14 315 9.7 14.5 0.00 0.00 0.00 84 1015.2
20260508093020 14 355 9.7 14.5 0.00 0.00 0.00 84 1015.1
20260508093016 14 29 9.7 12.9 0.00 0.00 0.00 84 1015.1
20260508092016 14 42 9.7 12.9 0.00 0.00 0.00 84 1015.2
20260508091516 14 24 8.0 12.9 0.00 0.00 0.00 82 1015.1
20260508091016 15 29 6.4 9.7 0.00 0.00 0.00 78 1015.2
20260508090513 16 20 6.4 11.3 0.00 0.00 0.00 76 1015.1
20260508090013 16 20 6.4 11.3 0.00 0.00 0.00 76 1015.2
20260508085517 16 11 4.8 8.0 0.00 0.00 0.00 76 1015.3
20260508085513 16 20 6.4 8.0 0.00 0.00 0.00 77 1015.3
20260508084515 16 253 1.6 4.8 0.00 0.00 0.00 76 1015.3
20260508084511 16 18 3.2 6.4 0.00 0.00 0.00 76 1015.3
20260508083511 16 263 1.6 3.2 0.00 0.00 0.00 76 1015.4
20260508083015 16 36 1.6 3.2 0.00 0.00 0.00 75 1015.4
20260508083011 16 270 1.6 3.2 0.00 0.00 0.00 75 1015.4
20260508082011 17 202 0.0 1.6 0.00 0.00 0.00 75 1015.5
20260508081511 16 163 0.0 1.6 0.00 0.00 0.00 76 1015.5
20260508081011 16 169 0.0 0.0 0.00 0.00 0.00 77 1015.6
20260508080508 16 152 0.0 0.0 0.00 0.00 0.00 76 1015.7
20260508080008 16 127 0.0 0.0 0.00 0.00 0.00 77 1015.7
20260508075507 16 130 0.0 0.0 0.00 0.00 0.00 77 1015.8
20260508075005 16 127 0.0 1.6 0.00 0.00 0.00 78 1015.8
20260508074505 15 112 0.0 4.8 0.00 0.00 0.00 78 1015.8
20260508074003 16 61 0.0 4.8 0.00 0.00 0.00 78 1015.7
20260508073503 16 355 0.0 4.8 0.00 0.00 0.00 78 1015.9
20260508073007 16 355 0.0 4.8 0.00 0.00 0.00 75 1015.9
20260508073003 16 5 0.0 4.8 0.00 0.00 0.00 77 1015.8
20260508072004 17 355 0.0 3.2 0.00 0.00 0.00 73 1015.8
20260508071503 17 349 0.0 3.2 0.00 0.00 0.00 72 1015.7
20260508071009 18 31 1.6 8.0 0.00 0.00 0.00 72 1015.6
20260508071003 17 31 0.0 3.2 0.00 0.00 0.00 72 1015.7
20260508070004 18 88 3.2 8.0 0.00 0.00 0.00 72 1015.7
20260508065505 18 21 6.4 8.0 0.00 0.00 0.00 73 1015.7
20260508065501 18 71 4.8 8.0 0.00 0.00 0.00 72 1015.7
20260508064501 18 46 6.4 8.0 0.00 0.00 0.00 72 1015.7
20260508064005 18 61 3.2 6.4 0.00 0.00 0.00 71 1015.7
20260508064001 18 40 4.8 8.0 0.00 0.00 0.00 71 1015.7
20260508063001 18 331 4.8 6.4 0.00 0.00 0.00 72 1015.7
20260508062501 18 321 4.8 6.4 0.00 0.00 0.00 70 1015.6
20260508062001 18 30 4.8 8.0 0.00 0.00 0.00 70 1015.6
20260508061501 18 30 4.8 8.0 0.00 0.00 0.00 70 1015.7
20260508061000 18 340 4.8 8.0 0.00 0.00 0.00 68 1015.6
20260508060459 18 332 6.4 8.0 0.00 0.00 0.00 66 1015.6
20260508055959 18 9 6.4 11.3 0.00 0.00 0.00 66 1015.7
20260508055459 18 22 8.0 11.3 0.00 0.00 0.00 65 1015.7
20260508054959 19 22 8.0 12.9 0.00 0.00 0.00 65 1015.7
20260508054503 19 56 8.0 12.9 0.00 0.00 0.00 66 1015.7
20260508054459 19 36 8.0 12.9 0.00 0.00 0.00 65 1015.7
20260508053459 19 58 8.0 12.9 0.00 0.00 0.00 67 1015.7
20260508052959 19 53 6.4 9.7 0.00 0.00 0.00 67 1015.7
20260508052458 19 60 6.4 9.7 0.00 0.00 0.00 67 1015.7
20260508051958 19 59 3.2 9.7 0.00 0.00 0.00 67 1015.7
20260508051457 18 55 3.2 6.4 0.00 0.00 0.00 67 1015.7
20260508051002 18 0 3.2 6.4 0.00 0.00 0.00 65 1015.7
20260508050957 18 0 3.2 4.8 0.00 0.00 0.00 65 1015.7
20260508050000 18 0 1.6 6.4 0.00 0.00 0.00 67 1015.7
20260508045956 18 0 1.6 6.4 0.00 0.00 0.00 65 1015.7
20260508044957 19 0 1.6 6.4 0.00 0.00 0.00 66 1015.6
20260508044456 19 0 1.6 6.4 0.00 0.00 0.00 67 1015.6
20260508043957 19 22 0.0 4.8 0.00 0.00 0.00 66 1015.7
20260508043456 19 22 1.6 4.8 0.00 0.00 0.00 67 1015.6
20260508042957 20 26 1.6 3.2 0.00 0.00 0.00 66 1015.5
20260508042457 20 40 0.0 3.2 0.00 0.00 0.00 65 1015.4
20260508041957 20 40 0.0 1.6 0.00 0.00 0.00 64 1015.4
20260508041456 20 40 0.0 1.6 0.00 0.00 0.00 64 1015.3
20260508040955 20 40 0.0 1.6 0.00 0.00 0.00 64 1015.3
20260508040455 20 40 0.0 3.2 0.00 0.00 0.00 64 1015.2
20260508035955 20 40 1.6 3.2 0.00 0.00 0.00 64 1015.3
20260508035455 20 32 0.0 3.2 0.00 0.00 0.00 64 1015.1
20260508034955 20 221 0.0 0.0 0.00 0.00 0.00 64 1015.1
20260508034454 20 221 0.0 0.0 0.00 0.00 0.00 64 1015.1
20260508033955 20 221 0.0 1.6 0.00 0.00 0.00 65 1015.1
20260508033455 20 221 0.0 1.6 0.00 0.00 0.00 65 1015.1
20260508032959 20 221 0.0 1.6 0.00 0.00 0.00 64 1014.9
20260508032955 20 221 0.0 1.6 0.00 0.00 0.00 64 1014.9
20260508031956 20 221 0.0 6.4 0.00 0.00 0.00 65 1014.9
20260508031454 20 221 1.6 6.4 0.00 0.00 0.00 64 1014.8
20260508030954 20 221 3.2 6.4 0.00 0.00 0.00 64 1014.8
20260508030453 20 221 4.8 11.3 0.00 0.00 0.00 63 1014.6
20260508025953 20 230 6.4 11.3 0.00 0.00 0.00 63 1014.5
20260508025450 21 225 6.4 12.9 0.00 0.00 0.00 62 1014.5
20260508024950 21 221 6.4 12.9 0.00 0.00 0.00 61 1014.5
20260508024451 21 233 4.8 9.7 0.00 0.00 0.00 60 1014.5
20260508023951 21 253 3.2 9.7 0.00 0.00 0.00 60 1014.5
20260508023451 21 223 1.6 4.8 0.00 0.00 0.00 59 1014.4
20260508022951 21 273 0.0 3.2 0.00 0.00 0.00 59 1014.4
20260508022451 21 273 0.0 3.2 0.00 0.00 0.00 59 1014.3
20260508021951 21 273 1.6 3.2 0.00 0.00 0.00 60 1014.3
20260508021451 21 273 0.0 3.2 0.00 0.00 0.00 60 1014.3
20260508020951 21 273 0.0 6.4 0.00 0.00 0.00 59 1014.3
20260508020455 21 273 3.2 9.7 0.00 0.00 0.00 62 1014.2
20260508020451 21 273 0.0 6.4 0.00 0.00 0.00 60 1014.2
20260508015451 21 273 4.8 9.7 0.00 0.00 0.00 62 1014.2
20260508014951 21 267 4.8 9.7 0.00 0.00 0.00 62 1014.2
20260508014451 22 267 3.2 9.7 0.00 0.00 0.00 60 1014.3
20260508013955 22 286 4.8 8.0 0.00 0.00 0.00 58 1014.2
20260508013951 22 250 3.2 8.0 0.00 0.00 0.00 59 1014.3
20260508012951 22 275 4.8 11.3 0.00 0.00 0.00 58 1014.2
20260508012455 23 311 3.2 8.0 0.00 0.00 0.00 57 1014.2
20260508012451 23 288 4.8 11.3 0.00 0.00 0.00 57 1014.1
20260508011454 23 252 0.0 4.8 0.00 0.00 0.00 57 1014.2
20260508011448 23 312 1.6 6.4 0.00 0.00 0.00 57 1014.2
20260508011056 23 308 1.6 4.8 0.00 0.00 0.00 57 1014.3
20260508005949 23 262 1.6 8.0 0.00 0.00 0.00 56 1014.3
20260508005454 23 267 1.6 8.0 0.00 0.00 0.00 57 1014.2
20260508005448 23 317 1.6 8.0 0.00 0.00 0.00 55 1014.2
20260508004448 23 277 3.2 8.0 0.00 0.00 0.00 55 1014.3
20260508003952 23 268 3.2 6.4 0.00 0.00 0.00 56 1014.3
20260508003948 24 257 1.6 8.0 0.00 0.00 0.00 55 1014.3
20260508002949 24 304 1.6 8.0 0.00 0.00 0.00 56 1014.3
20260508002448 24 300 1.6 9.7 0.00 0.00 0.00 55 1014.2
20260508001948 24 306 1.6 9.7 0.00 0.00 0.00 56 1014.2
20260508001448 24 293 1.6 9.7 0.00 0.00 0.00 56 1014.2
20260508000948 24 229 1.6 9.7 0.00 0.00 0.00 56 1014.2
20260508000445 24 18 3.2 9.7 0.00 0.00 0.00 55 1014.3
20260507235946 24 47 1.6 14.5 0.00 0.00 0.00 55 1014.3
20260507235454 24 258 1.6 14.5 0.00 0.00 0.00 56 1014.3
20260507235447 24 315 1.6 14.5 0.00 0.00 0.00 55 1014.3
20260507234446 24 309 3.2 14.5 0.00 0.00 0.00 57 1014.3
20260507234054 23 244 6.4 19.3 0.00 0.00 0.00 59 1014.4
20260507233952 24 284 3.2 19.3 0.00 0.00 0.00 59 1014.4
20260507233946 24 252 1.6 8.0 0.00 0.00 0.00 57 1014.3
20260507233702 23 292 3.2 14.5 0.00 0.00 0.00 58 1014.4
20260507232446 23 248 4.8 16.1 0.00 0.00 0.00 57 1014.3
20260507231445 23 263 3.2 14.5 0.00 0.00 0.00 58 1014.4
20260507230944 24 252 4.8 14.5 0.00 0.00 0.00 56 1014.4
20260507230449 23 305 8.0 14.5 0.00 0.00 0.00 59 1014.4
20260507230445 23 255 6.4 14.5 0.00 0.00 0.00 57 1014.4
20260507225444 23 279 8.0 20.9 0.00 0.00 0.00 60 1014.4
20260507224944 23 305 8.0 20.9 0.00 0.00 0.00 61 1014.4
20260507224444 23 329 9.7 20.9 0.00 0.00 0.00 61 1014.4
20260507223948 23 309 11.3 19.3 0.00 0.00 0.00 64 1014.5
20260507223944 23 311 11.3 20.9 0.00 0.00 0.00 63 1014.6
20260507222944 22 270 9.7 19.3 0.00 0.00 0.00 63 1014.5
20260507222444 22 284 9.7 17.7 0.00 0.00 0.00 65 1014.6
20260507221942 22 284 8.0 17.7 0.00 0.00 0.00 65 1014.6
20260507221442 22 266 6.4 16.1 0.00 0.00 0.00 64 1014.6
20260507220942 23 259 6.4 19.3 0.00 0.00 0.00 63 1014.8
20260507220442 23 287 8.0 19.3 0.00 0.00 0.00 65 1014.8
20260507215946 22 306 6.4 16.1 0.00 0.00 0.00 66 1014.9
20260507215942 22 267 6.4 16.1 0.00 0.00 0.00 66 1014.9
20260507214942 22 307 6.4 16.1 0.00 0.00 0.00 64 1015.0
20260507214443 22 310 8.0 16.1 0.00 0.00 0.00 67 1015.0
20260507213942 22 291 6.4 16.1 0.00 0.00 0.00 67 1015.1
20260507213442 22 267 3.2 12.9 0.00 0.00 0.00 66 1015.2
20260507212946 22 267 9.7 19.3 0.00 0.00 0.00 66 1015.2
20260507212942 22 304 6.4 16.1 0.00 0.00 0.00 66 1015.2
20260507211942 22 322 9.7 19.3 0.00 0.00 0.00 66 1015.3
20260507211443 22 267 6.4 17.7 0.00 0.00 0.00 66 1015.3
20260507210943 22 296 8.0 14.5 0.00 0.00 0.00 66 1015.3
20260507210443 22 280 8.0 14.5 0.00 0.00 0.00 65 1015.3
20260507205941 21 285 8.0 14.5 0.00 0.00 0.00 68 1015.4
20260507205441 21 254 8.0 14.5 0.00 0.00 0.00 67 1015.4
20260507204942 22 275 4.8 14.5 0.00 0.00 0.00 64 1015.4
20260507204938 22 292 1.6 12.9 0.00 0.00 0.00 64 1015.5
20260507203938 22 238 4.8 16.1 0.00 0.00 0.00 66 1015.6
20260507203435 22 72 6.4 16.1 0.00 0.00 0.00 69 1015.5
20260507202939 22 264 3.2 11.3 0.00 0.00 0.00 64 1015.7
20260507202935 21 289 4.8 16.1 0.00 0.00 0.00 66 1015.6
20260507201933 22 254 3.2 12.9 0.00 0.00 0.00 65 1015.7
20260507201433 22 266 3.2 12.9 0.00 0.00 0.00 65 1015.8
20260507200934 21 246 1.6 9.7 0.00 0.00 0.00 67 1015.7
20260507200433 22 292 1.6 4.8 0.00 0.00 0.00 67 1015.9
20260507195933 22 257 0.0 4.8 0.00 0.00 0.00 66 1015.9
20260507195434 22 263 1.6 6.4 0.00 0.00 0.00 65 1015.9
20260507194934 22 250 1.6 6.4 0.00 0.00 0.00 68 1015.9
20260507194433 22 226 1.6 6.4 0.00 0.00 0.00 66 1015.9
20260507193933 22 161 1.6 9.7 0.00 0.00 0.00 66 1015.9
20260507193433 22 211 3.2 17.7 0.00 0.00 0.00 66 1016.0
20260507192933 22 190 4.8 17.7 0.00 0.00 0.00 63 1016.0
20260507192434 23 26 6.4 17.7 0.00 0.00 0.00 63 1016.2
20260507191937 23 88 8.0 17.7 0.00 0.00 0.00 61 1016.0
20260507191933 23 92 6.4 17.7 0.00 0.00 0.00 61 1016.2
20260507190933 22 98 9.7 17.7 0.00 0.00 0.00 64 1016.2
20260507190438 23 30 9.7 16.1 0.00 0.00 0.00 60 1016.3
20260507190434 23 90 9.7 17.7 0.00 0.00 0.00 60 1016.2
20260507185434 23 24 9.7 19.3 0.00 0.00 0.00 61 1016.3
20260507184933 22 13 9.7 19.3 0.00 0.00 0.00 63 1016.4
20260507184433 22 46 11.3 19.3 0.00 0.00 0.00 63 1016.4
20260507183933 21 45 11.3 19.3 0.00 0.00 0.00 64 1016.4
20260507183434 22 13 9.7 17.7 0.00 0.00 0.00 63 1016.4
20260507182932 22 38 9.7 16.1 0.00 0.00 0.00 64 1016.4
20260507182435 22 55 9.7 16.1 0.00 0.00 0.00 64 1016.5
20260507182431 22 42 9.7 16.1 0.00 0.00 0.00 63 1016.4
20260507181430 21 0 8.0 16.1 0.00 0.00 0.00 64 1016.5
20260507180928 21 0 6.4 16.1 0.00 0.00 0.00 65 1016.4
20260507180427 21 346 8.0 16.1 0.00 0.00 0.00 66 1016.4
20260507175927 21 38 8.0 14.5 0.00 0.00 0.00 65 1016.4
20260507175425 21 36 6.4 14.5 0.00 0.00 0.00 66 1016.4
20260507174926 21 355 4.8 12.9 0.00 0.00 0.00 66 1016.4
20260507174425 21 45 3.2 12.9 0.00 0.00 0.00 66 1016.4
20260507173930 21 16 3.2 14.5 0.00 0.00 0.00 66 1016.4
20260507173925 21 43 3.2 14.5 0.00 0.00 0.00 68 1016.4
20260507172926 21 57 1.6 12.9 0.00 0.00 0.00 68 1016.4
20260507172425 21 70 1.6 8.0 0.00 0.00 0.00 71 1016.5
20260507171925 20 132 1.6 6.4 0.00 0.00 0.00 71 1016.4
20260507171426 20 109 3.2 9.7 0.00 0.00 0.00 71 1016.5
20260507170925 20 52 3.2 9.7 0.00 0.00 0.00 68 1016.4
20260507170430 20 38 3.2 12.9 0.00 0.00 0.00 70 1016.4
20260507170425 20 14 3.2 11.3 0.00 0.00 0.00 69 1016.4
20260507165432 19 17 4.8 9.7 0.00 0.00 0.00 72 1016.5
20260507165425 20 21 4.8 12.9 0.00 0.00 0.00 70 1016.5
20260507164425 19 40 4.8 8.0 0.00 0.00 0.00 71 1016.5
20260507163926 20 37 4.8 9.7 0.00 0.00 0.00 70 1016.5
20260507163425 20 29 3.2 9.7 0.00 0.00 0.00 70 1016.5
20260507162929 20 355 3.2 8.0 0.00 0.00 0.00 69 1016.4
20260507162924 20 20 3.2 8.0 0.00 0.00 0.00 70 1016.4
20260507161923 20 11 1.6 6.4 0.00 0.00 0.00 69 1016.3
20260507161423 20 49 1.6 4.8 0.00 0.00 0.00 68 1016.4
20260507160928 20 326 1.6 8.0 0.00 0.00 0.00 67 1016.5
20260507160924 20 24 1.6 8.0 0.00 0.00 0.00 67 1016.4
20260507155923 20 338 3.2 8.0 0.00 0.00 0.00 67 1016.5
20260507155423 20 29 1.6 8.0 0.00 0.00 0.00 67 1016.4
20260507154923 20 73 1.6 6.4 0.00 0.00 0.00 65 1016.4
20260507154423 20 37 1.6 6.4 0.00 0.00 0.00 67 1016.5
20260507153923 20 54 1.6 6.4 0.00 0.00 0.00 67 1016.4
20260507153421 20 39 1.6 4.8 0.00 0.00 0.00 66 1016.4
20260507152920 19 41 0.0 4.8 0.00 0.00 0.00 66 1016.4
20260507152421 19 97 0.0 3.2 0.00 0.00 0.00 66 1016.4
20260507152029 19 61 0.0 4.8 0.00 0.00 0.00 67 1016.4
20260507151925 19 36 0.0 4.8 0.00 0.00 0.00 67 1016.4
20260507151921 19 97 1.6 4.8 0.00 0.00 0.00 66 1016.4
20260507150421 19 111 0.0 4.8 0.00 0.00 0.00 67 1016.4
20260507145920 19 36 0.0 1.6 0.00 0.00 0.00 67 1016.4
20260507145421 18 36 0.0 1.6 0.00 0.00 0.00 65 1016.5
20260507144919 18 36 0.0 3.2 0.00 0.00 0.00 68 1016.5
20260507144417 18 38 1.6 3.2 0.00 0.00 0.00 69 1016.5
20260507143922 18 26 0.0 3.2 0.00 0.00 0.00 66 1016.4
20260507143916 18 20 0.0 3.2 0.00 0.00 0.00 67 1016.4
20260507143531 18 27 1.6 4.8 0.00 0.00 0.00 68 1016.3
20260507143525 18 26 0.0 3.2 0.00 0.00 0.00 68 1016.3
20260507141917 18 5 1.6 4.8 0.00 0.00 0.00 65 1016.3
20260507141417 18 5 0.0 4.8 0.00 0.00 0.00 63 1016.2
20260507140915 18 355 1.6 8.0 0.00 0.00 0.00 65 1016.3
20260507140415 18 355 4.8 9.7 0.00 0.00 0.00 64 1016.2
20260507135915 18 0 6.4 9.7 0.00 0.00 0.00 63 1016.0
20260507135414 18 349 6.4 9.7 0.00 0.00 0.00 63 1016.2
20260507134915 18 349 6.4 9.7 0.00 0.00 0.00 64 1016.0
20260507134415 18 351 6.4 9.7 0.00 0.00 0.00 64 1016.0
20260507133915 18 0 6.4 9.7 0.00 0.00 0.00 64 1015.8
20260507133417 18 5 3.2 8.0 0.00 0.00 0.00 64 1015.9
20260507133413 18 0 6.4 8.0 0.00 0.00 0.00 64 1015.8
20260507132411 18 5 1.6 4.8 0.00 0.00 0.00 64 1015.8
20260507131913 17 35 0.0 3.2 0.00 0.00 0.00 65 1015.9
20260507131412 17 35 1.6 4.8 0.00 0.00 0.00 65 1015.8
20260507130911 17 24 4.8 6.4 0.00 0.00 0.00 65 1015.8
20260507130411 17 22 4.8 8.0 0.00 0.00 0.00 65 1015.8
20260507125910 17 26 4.8 8.0 0.00 0.00 0.00 65 1015.8
20260507125411 17 76 3.2 6.4 0.00 0.00 0.00 67 1015.8
20260507124911 17 76 1.6 4.8 0.00 0.00 0.00 67 1015.8
20260507124411 17 76 1.6 8.0 0.00 0.00 0.00 69 1015.8
20260507123911 17 76 1.6 8.0 0.00 0.00 0.00 70 1015.7
20260507123411 17 76 4.8 8.0 0.00 0.00 0.00 68 1015.7
20260507122911 17 76 4.8 9.7 0.00 0.00 0.00 68 1015.7
20260507122411 17 75 6.4 11.3 0.00 0.00 0.00 69 1015.6
20260507121910 17 90 6.4 11.3 0.00 0.00 0.00 69 1015.8